Theta_e
316 324 335 338 339 339 339 340 340 340 341 341 342 342 344 344 344 345 346 347 348 348 348 348 347 348 347 346 343 342 342 343 345 341 339 338 339 337 340 340 343 340 346
318 323 332 332 333 333 333 334 334 334 335 335 336 337 339 340 342 342 342 343 345 346 348 348 347 347 347 347 346 345 343 344 344 342 338 337 339 337 339 339 344 342 345
316 319 323 328 328 328 328 328 329 329 329 330 330 330 330 332 333 335 337 338 340 342 345 348 348 348 347 347 347 347 346 345 343 342 339 329 329 338 338 339 342 343 343
315 317 319 326 325 325 325 325 325 326 326 326 326 326 326 327 327 327 328 329 334 339 342 343 344 345 345 347 347 347 346 346 343 341 335 331 329 334 338 340 340 342 343
311 315 320 323 323 323 323 323 323 323 323 323 323 324 324 323 323 324 323 324 327 330 333 337 340 341 340 341 344 346 346 344 342 339 335 331 327 331 339 340 340 342 342
309 313 319 320 321 321 321 321 321 321 321 320 320 321 321 321 321 321 322 323 322 323 325 327 329 331 334 336 339 342 344 344 341 334 333 333 332 335 338 342 343 343 341
305 308 311 318 318 319 319 319 319 318 318 318 317 317 317 317 317 317 317 319 320 321 322 323 323 323 325 327 332 336 338 337 338 334 333 333 331 337 339 342 343 342 342
304 306 308 314 315 315 316 316 316 315 315 315 314 314 313 313 314 314 314 316 318 319 319 320 320 321 321 323 324 326 329 329 333 334 334 333 335 339 340 340 345 343 343
300 301 300 304 308 312 312 312 312 312 312 311 310 310 309 309 309 309 310 313 314 315 316 316 317 318 318 318 319 321 323 323 320 332 334 333 336 341 341 341 345 345 344
297 296 296 296 297 296 301 310 310 309 309 307 307 306 305 304 305 305 306 309 310 311 312 312 313 314 313 312 313 314 319 323 317 328 332 334 337 341 342 341 344 345 346
296 295 295 295 295 296 298 300 303 305 305 303 301 303 299 295 297 297 303 306 307 307 308 309 309 310 308 306 308 310 312 316 319 326 330 333 337 341 343 342 343 344 345
293 294 295 294 294 295 299 295 295 297 295 294 294 295 296 294 296 297 298 302 302 303 304 306 306 305 302 299 300 304 303 306 310 314 325 332 336 340 342 342 343 343 344
294 295 295 294 294 293 294 293 293 293 292 293 292 294 293 293 292 292 292 293 293 297 295 297 297 297 297 298 299 299 301 302 304 309 315 322 324 331 340 341 343 343 344
293 294 295 294 294 293 293 292 292 292 291 291 291 293 292 291 290 290 291 291 291 293 292 293 294 296 296 297 298 299 299 300 301 303 306 313 318 322 327 334 341 342 343
293 294 293 293 293 293 292 292 291 291 291 290 291 292 292 290 289 290 290 291 290 292 292 292 293 294 295 296 297 298 298 299 300 302 303 308 311 314 318 323 330 338 341
295 294 294 293 293 293 292 291 291 290 290 290 290 291 292 291 290 291 290 290 290 291 292 292 292 293 294 295 296 297 297 299 300 301 302 303 309 311 314 317 321 328 337
295 295 294 293 293 292 291 291 291 291 292 289 290 290 291 292 291 290 290 289 290 291 292 292 293 293 293 295 294 295 296 297 298 299 300 302 304 309 311 314 317 321 327
294 294 294 296 293 292 290 290 290 290 289 289 289 290 291 292 291 289 289 289 290 291 291 291 291 292 292 292 291 292 292 294 296 299 300 301 303 306 308 312 314 316 321
295 294 293 293 292 291 290 290 289 289 289 289 289 288 289 290 290 289 289 289 290 290 290 291 291 291 290 290 291 292 293 293 294 296 297 299 300 302 303 307 311 314 316
294 293 292 291 291 291 290 289 288 288 288 288 288 288 289 289 290 289 289 289 290 290 289 289 289 290 290 289 291 291 291 292 293 294 295 298 299 300 301 303 306 308 313
291 292 291 291 291 289 287 286 286 286 286 286 287 288 289 289 290 289 288 288 288 287 288 288 288 288 288 289 288 288 290 291 292 293 295 296 298 300 301 302 304 306 308
291 291 291 291 290 289 288 287 286 285 285 286 287 287 287 289 290 289 288 287 287 287 287 287 287 286 287 288 286 287 284 287 292 292 293 297 296 300 300 302 304 306 307
288 288 289 290 290 289 289 287 286 286 285 284 285 285 287 288 289 288 288 287 286 286 286 286 286 286 285 287 289 287 284 283 286 290 291 292 293 294 296 301 300 305 308
288 288 289 289 289 289 288 287 285 284 283 283 283 284 286 287 287 288 287 286 285 286 285 286 288 287 287 286 289 291 291 290 285 283 289 291 292 292 294 295 300 300 302
288 287 287 288 288 289 287 287 285 284 283 283 282 284 285 286 286 286 286 285 285 286 286 286 286 287 288 287 288 288 289 289 289 286 284 287 291 293 294 296 296 297 298
286 286 286 287 288 288 287 286 285 283 282 281 282 282 283 283 284 285 286 286 288 287 288 288 288 289 289 289 289 289 288 287 287 287 285 286 287 291 293 294 294 296 298
Wind_Speed
2 4 11 13 15 17 17 16 16 16 16 15 15 15 15 15 14 13 13 13 11 9 7 6 5 4 2 0 1 1 2 3 3 3 5 5 6 5 4 4 5 4 4
5 6 11 15 15 15 14 15 15 16 16 16 16 16 16 14 14 14 13 13 13 10 9 8 5 5 5 3 1 2 2 1 1 1 4 5 5 4 3 3 5 3 3
8 6 7 14 15 13 14 14 16 16 17 16 16 16 16 15 14 14 14 13 12 10 11 12 11 9 6 4 5 4 4 3 2 2 3 3 3 3 0 1 2 2 2
8 6 6 13 14 14 14 15 15 16 16 16 16 16 15 15 15 14 14 14 13 11 12 12 13 15 15 12 6 6 5 5 4 3 0 2 3 5 3 4 3 1 2
7 6 6 13 14 14 14 15 16 16 16 17 16 16 15 15 16 15 15 14 14 15 14 15 15 15 15 14 15 10 8 6 5 4 3 2 2 5 6 6 7 4 4
7 6 9 13 13 14 15 15 15 16 16 17 17 16 16 16 16 16 16 16 15 15 14 14 14 14 15 14 14 15 14 9 6 3 4 4 4 7 8 8 8 7 6
6 6 6 13 13 14 14 14 14 15 16 16 16 16 16 16 16 16 16 15 15 15 15 15 15 14 14 14 14 14 14 15 6 4 4 5 5 8 9 12 10 11 8
8 6 6 10 11 13 13 13 14 14 15 16 16 17 17 16 16 16 16 16 16 16 16 16 16 15 15 15 15 15 14 13 9 5 5 5 8 10 11 12 12 13 11
6 6 5 6 8 11 12 12 13 14 14 16 16 16 16 16 16 17 17 16 16 16 16 16 16 17 17 17 17 16 14 13 7 6 5 4 9 13 13 13 13 14 13
6 6 5 4 4 5 5 11 12 13 14 15 14 14 14 14 15 16 16 17 17 16 17 16 16 17 17 16 17 18 16 13 6 5 5 5 11 16 16 15 14 15 14
4 5 4 4 4 4 5 6 9 11 12 12 11 13 9 5 6 9 13 16 17 17 17 17 17 17 17 15 15 17 15 6 9 5 4 9 13 17 19 17 16 16 17
5 4 5 4 4 4 4 5 5 5 4 5 5 6 5 6 5 8 10 14 16 16 17 17 18 17 12 6 5 11 5 7 6 7 7 11 15 19 20 21 17 17 18
6 4 5 5 4 4 4 3 2 3 3 3 6 5 5 4 4 4 4 4 4 11 5 8 8 6 7 6 6 5 6 6 4 5 9 16 18 19 22 23 21 19 18
7 7 6 5 5 4 3 3 2 2 2 2 3 4 3 3 4 3 2 3 4 3 5 4 3 6 7 7 6 7 7 5 5 5 7 16 18 20 21 22 25 23 21
7 7 7 6 5 4 4 3 2 2 2 1 2 3 2 2 3 3 3 3 4 4 4 5 5 6 6 7 7 7 8 7 7 5 5 14 20 20 22 22 23 23 25
7 8 7 7 6 5 4 3 2 1 1 2 3 3 5 3 4 4 4 4 4 3 4 3 4 5 6 5 7 7 8 8 8 8 6 7 18 21 20 22 23 23 24
6 8 9 8 6 6 5 4 3 1 1 1 2 4 4 4 4 5 4 4 4 4 5 5 6 5 6 6 7 7 8 9 8 9 8 7 9 15 18 20 22 23 23
6 11 9 7 7 6 5 3 2 1 0 1 2 2 4 4 4 4 3 4 4 4 4 4 5 7 8 7 8 8 7 8 10 10 9 8 7 7 11 18 21 22 22
10 10 8 7 7 6 4 2 2 1 1 2 2 2 4 4 5 3 3 4 4 4 3 4 6 5 8 8 10 10 8 8 10 10 12 11 10 10 8 15 19 19 22
8 7 6 5 6 5 3 1 1 1 2 1 1 3 4 4 5 4 4 4 4 4 4 4 5 5 5 8 10 11 10 9 9 9 9 9 9 9 9 10 9 9 17
6 7 7 7 6 3 2 1 1 3 1 2 2 3 4 4 4 3 3 4 4 4 5 5 6 7 5 4 9 7 7 9 11 7 7 7 7 8 7 7 7 7 8
7 7 7 7 6 5 3 2 2 2 2 2 2 3 4 4 4 4 4 4 4 4 5 5 6 7 4 4 5 8 6 4 1 8 3 2 5 3 5 7 7 9 9
7 7 7 7 7 6 6 2 1 1 1 1 2 2 3 5 5 5 5 4 4 4 5 5 6 7 6 4 5 4 5 4 12 3 10 4 7 8 7 5 10 8 9
7 5 5 6 6 5 6 4 5 3 2 2 1 2 4 5 5 5 4 4 4 4 5 5 6 4 4 6 4 6 7 8 6 9 3 11 12 11 10 8 5 8 10
6 6 5 5 6 5 6 5 4 3 3 2 2 4 5 5 5 5 5 5 5 4 6 7 6 6 5 6 6 6 7 7 9 8 16 8 8 7 6 7 8 8 9
4 4 4 4 4 4 6 6 6 6 4 3 3 3 4 3 4 5 6 5 6 8 8 6 7 8 7 7 7 8 7 7 6 7 11 12 15 10 9 9 8 6 7
Wind_Direction
356 50 65 66 72 67 65 64 62 61 62 60 57 56 58 63 62 58 54 50 46 45 44 33 13 341 321 37 71 127 125 117 96 69 49 38 48 56 78 54 11 345 116
117 69 81 77 68 74 73 76 74 70 66 62 58 55 53 51 46 46 47 38 32 31 21 12 11 352 338 316 226 247 253 235 140 94 59 31 20 44 73 71 7 103 146
88 73 78 87 88 83 77 74 73 69 65 61 57 53 53 52 50 44 37 33 28 20 15 8 17 2 348 322 284 252 253 256 271 311 17 10 339 345 44 235 10 47 195
101 74 78 89 90 84 79 75 72 69 66 60 55 52 50 48 44 40 38 32 27 20 15 6 11 12 10 354 315 282 267 272 272 252 290 316 313 321 269 240 250 280 241
88 85 90 97 91 87 82 77 73 69 66 59 55 53 51 48 39 37 32 30 31 24 15 7 7 7 6 356 356 319 283 272 275 264 270 260 294 307 262 238 241 251 264
91 90 100 99 94 88 83 76 74 70 67 60 55 52 49 42 39 36 33 28 18 14 12 9 4 358 355 349 349 348 344 295 272 250 259 274 260 282 293 243 235 242 253
98 85 86 94 91 86 83 78 74 69 66 62 55 51 48 43 37 32 26 23 19 14 10 8 4 359 353 347 343 336 344 349 304 252 256 268 263 272 282 259 229 238 244
116 98 76 81 84 84 81 80 72 66 63 57 53 51 46 41 40 34 27 21 17 14 10 6 4 0 357 353 341 337 339 338 333 293 261 257 265 272 270 279 230 231 234
108 101 79 67 64 77 81 78 74 68 66 56 53 49 45 41 37 31 26 21 18 11 8 4 1 359 356 350 350 344 335 322 317 306 278 253 260 271 272 271 248 221 233
117 112 104 85 79 67 54 67 67 60 60 52 50 48 46 41 36 31 26 20 17 14 7 3 359 356 354 352 350 347 340 321 308 291 283 262 259 267 271 262 267 233 226
130 138 126 112 102 87 77 55 51 51 53 45 40 36 36 30 22 30 21 22 17 13 5 2 359 356 353 350 350 347 346 341 335 300 277 272 264 270 270 266 258 251 230
172 170 146 133 124 102 88 71 62 55 48 44 38 33 28 26 19 27 21 20 14 10 3 1 357 355 352 344 338 343 338 329 324 317 312 286 274 272 268 267 257 260 237
174 163 167 156 138 121 105 92 61 54 46 33 34 34 31 25 16 15 9 4 359 1 357 355 350 348 341 338 334 327 321 321 312 310 314 316 315 320 285 266 262 254 248
173 182 176 165 152 140 116 92 87 70 59 43 24 29 32 19 13 9 15 357 357 342 345 343 335 326 327 321 316 316 312 304 302 302 297 304 307 310 303 310 280 258 253
184 181 184 172 173 160 131 120 101 74 61 36 22 12 36 19 7 354 0 358 352 348 347 340 333 330 324 319 316 307 309 302 293 293 291 292 298 296 297 298 295 298 260
190 184 176 188 181 166 161 150 139 82 3 10 358 354 1 5 358 360 351 350 342 340 325 318 318 320 313 304 309 311 303 297 293 287 283 288 292 296 295 292 290 286 289
194 178 184 183 180 182 176 163 154 185 86 330 331 343 346 350 348 343 336 335 325 327 329 332 331 321 317 313 306 306 301 295 288 286 285 278 284 285 285 285 284 284 279
162 178 180 180 179 188 175 162 172 181 269 302 327 338 339 337 335 328 325 317 313 322 324 329 320 324 321 315 308 304 294 290 291 285 278 273 272 282 289 286 281 279 284
178 176 177 177 178 185 175 167 192 268 277 295 327 342 324 324 324 323 310 303 316 318 321 320 323 312 312 310 304 300 294 290 285 280 274 269 267 267 270 276 279 279 279
172 166 162 155 174 178 141 107 1 300 277 269 273 296 311 313 317 320 315 315 325 321 307 301 300 296 286 297 304 299 287 279 271 265 272 269 267 269 270 271 273 273 273
134 148 162 165 187 143 132 170 238 237 231 273 272 289 308 309 318 328 314 317 310 295 287 286 295 293 294 293 310 300 286 273 271 269 270 270 271 272 278 275 270 270 277
159 164 167 191 185 191 174 187 174 176 216 240 263 289 305 308 318 316 325 311 314 309 299 287 285 292 279 297 300 302 319 322 26 312 289 308 302 320 306 291 284 277 270
164 180 189 203 209 209 196 136 107 51 8 317 293 301 316 331 320 319 317 316 307 292 289 280 274 266 281 274 265 278 310 304 337 295 318 326 342 329 311 302 308 298 291
199 195 217 227 230 227 190 180 184 196 237 236 245 278 307 310 305 301 292 292 280 273 275 274 274 259 265 279 282 266 263 281 306 314 279 334 318 307 297 295 300 318 316
190 203 222 245 249 236 194 189 187 215 230 269 291 293 296 300 291 280 266 263 263 257 256 256 266 261 250 262 267 270 269 269 268 270 292 301 291 292 296 289 293 297 297
200 197 207 228 248 211 189 190 193 213 239 263 269 274 274 270 272 267 261 254 286 288 277 278 273 277 269 267 269 267 264 272 280 285 288 294 290 294 287 286 280 272 283